N901WK KBZN-CYYZ

Flight info

Callsign N901WK
Flight time N/A
Altitude 37000
Route BOBKT5 BIL DCT KP06Y DCT KP06A DCT KP03I DCT TVC DCT NOSIK DCT NUBER NUBER6
Aircraft E35L/M-SABDFGRW/S

Departure

Time 2026-04-25 03:40
Airport Bozeman Yellowstone International Airport (KBZN)

Arrival

Time N/A
Airport Toronto Pearson International Airport (CYYZ)
Time Latitude Longitude Altitude Speed Heading
2026-04-25 03:23 45.77283 -111.15173 4474 ft 0 kts 136°
2026-04-25 03:36 45.77276 -111.15164 4473 ft 2 kts 135°
2026-04-25 03:36 45.77275 -111.15122 4473 ft 7 kts 74°
2026-04-25 03:37 45.77296 -111.15037 4473 ft 10 kts 57°
2026-04-25 03:37 45.77284 -111.14942 4473 ft 11 kts 135°
2026-04-25 03:37 45.77232 -111.14869 4473 ft 19 kts 136°
2026-04-25 03:37 45.77124 -111.14719 4473 ft 23 kts 135°
2026-04-25 03:38 45.77003 -111.14552 4473 ft 22 kts 136°
2026-04-25 03:38 45.76925 -111.14435 4473 ft 14 kts 114°
2026-04-25 03:38 45.76968 -111.14311 4473 ft 13 kts 46°
2026-04-25 03:38 45.77032 -111.14220 4473 ft 8 kts 40°
2026-04-25 03:39 45.77077 -111.14245 4473 ft 9 kts 316°
2026-04-25 03:39 45.77267 -111.14508 4473 ft 79 kts 316°
2026-04-25 03:39 45.77861 -111.15334 4477 ft 152 kts 317°
2026-04-25 03:39 45.78654 -111.16437 5064 ft 169 kts 316°
2026-04-25 03:40 45.79510 -111.17673 5775 ft 190 kts 318°
2026-04-25 03:40 45.80549 -111.19096 6372 ft 219 kts 317°
2026-04-25 03:40 45.81696 -111.20702 6994 ft 241 kts 317°
2026-04-25 03:40 45.82930 -111.22433 7694 ft 259 kts 316°
2026-04-25 03:41 45.84208 -111.24226 8769 ft 261 kts 316°
2026-04-25 03:41 45.85501 -111.26042 9845 ft 262 kts 316°
2026-04-25 03:41 45.86798 -111.27866 10735 ft 270 kts 315°
2026-04-25 03:41 45.88153 -111.29771 11627 ft 278 kts 315°
2026-04-25 03:42 45.89558 -111.31660 12677 ft 279 kts 323°
2026-04-25 03:42 45.91339 -111.32687 13667 ft 286 kts 351°
2026-04-25 03:42 45.93320 -111.32336 14563 ft 298 kts 18°
2026-04-25 03:42 45.95040 -111.30608 15420 ft 312 kts 46°
2026-04-25 03:43 45.96399 -111.28130 16134 ft 322 kts 44°
2026-04-25 03:43 45.98000 -111.25743 16629 ft 336 kts 42°
2026-04-25 03:43 45.99542 -111.23420 17989 ft 323 kts 47°
2026-04-25 03:43 46.00600 -111.20544 18856 ft 332 kts 71°
2026-04-25 03:44 46.00784 -111.17202 19473 ft 347 kts 95°
2026-04-25 03:44 46.00528 -111.13758 20090 ft 356 kts 91°
2026-04-25 03:44 46.00391 -111.10033 20284 ft 379 kts 91°
2026-04-25 03:44 46.00253 -111.06224 20947 ft 385 kts 91°
2026-04-25 03:45 46.00114 -111.02389 21708 ft 389 kts 91°
2026-04-25 03:45 45.99972 -110.98502 22433 ft 393 kts 91°
2026-04-25 03:45 45.99828 -110.94582 23070 ft 399 kts 91°
2026-04-25 03:45 45.99678 -110.90552 23708 ft 405 kts 91°
2026-04-25 03:46 45.99526 -110.86484 24310 ft 411 kts 91°
2026-04-25 03:46 45.99369 -110.82370 24988 ft 415 kts 91°
2026-04-25 03:46 45.99211 -110.78216 25605 ft 421 kts 91°
2026-04-25 03:46 45.99047 -110.73983 26315 ft 424 kts 91°
2026-04-25 03:47 45.98882 -110.69742 27071 ft 425 kts 92°
2026-04-25 03:47 45.98717 -110.65550 27829 ft 426 kts 92°
2026-04-25 03:47 45.98548 -110.61297 28593 ft 426 kts 92°
2026-04-25 03:47 45.98379 -110.57090 29326 ft 427 kts 92°
2026-04-25 03:48 45.98205 -110.52794 30021 ft 428 kts 92°
2026-04-25 03:48 45.98029 -110.48496 30724 ft 429 kts 92°
2026-04-25 03:48 45.97851 -110.44176 31412 ft 428 kts 92°
2026-04-25 03:48 45.97675 -110.39944 32137 ft 422 kts 91°
2026-04-25 03:49 45.97500 -110.35787 32787 ft 416 kts 91°
2026-04-25 03:49 45.97326 -110.31654 33336 ft 412 kts 92°
2026-04-25 03:49 45.97150 -110.27545 33831 ft 409 kts 92°
2026-04-25 03:49 45.96975 -110.23477 34341 ft 408 kts 92°
2026-04-25 03:50 45.96846 -110.19426 34777 ft 407 kts 87°
2026-04-25 03:50 45.97030 -110.15363 35209 ft 407 kts 84°
2026-04-25 03:50 45.97228 -110.11324 35725 ft 404 kts 84°
2026-04-25 03:50 45.97418 -110.07293 36186 ft 403 kts 84°
2026-04-25 03:51 45.97602 -110.03322 36546 ft 405 kts 84°
2026-04-25 03:51 45.97787 -109.99290 36894 ft 406 kts 84°
2026-04-25 03:51 45.98162 -109.91002 36995 ft 423 kts 84°
2026-04-25 03:52 45.98543 -109.82435 36995 ft 439 kts 84°
2026-04-25 03:52 45.98932 -109.73539 36996 ft 455 kts 84°
2026-04-25 03:53 45.99326 -109.64348 36987 ft 470 kts 84°
2026-04-25 03:53 45.99725 -109.54857 36980 ft 484 kts 84°
2026-04-25 03:54 46.00128 -109.45080 36977 ft 493 kts 84°
2026-04-25 03:54 46.00525 -109.35252 36978 ft 486 kts 84°
2026-04-25 03:55 46.00908 -109.25565 36982 ft 481 kts 85°
2026-04-25 03:55 46.01278 -109.15985 36986 ft 478 kts 85°
2026-04-25 03:56 46.01639 -109.06429 36971 ft 476 kts 85°
2026-04-25 03:56 46.01990 -108.96944 36963 ft 474 kts 85°
2026-04-25 03:57 46.02331 -108.87517 36969 ft 471 kts 85°
2026-04-25 03:57 46.02660 -108.78204 36986 ft 469 kts 85°
2026-04-25 03:58 46.02983 -108.68841 36992 ft 467 kts 85°
2026-04-25 03:58 46.03297 -108.59532 36993 ft 466 kts 85°
2026-04-25 03:59 46.03601 -108.50284 36996 ft 464 kts 85°
2026-04-25 03:59 46.03845 -108.41061 37000 ft 463 kts 87°
2026-04-25 04:00 46.04032 -108.31823 36989 ft 461 kts 87°
2026-04-25 04:00 46.04221 -108.22690 36991 ft 460 kts 87°
2026-04-25 04:01 46.04404 -108.13510 36995 ft 459 kts 87°
2026-04-25 04:01 46.04579 -108.04378 36984 ft 457 kts 87°
2026-04-25 04:02 46.04747 -107.95251 36985 ft 456 kts 87°
2026-04-25 04:02 46.04908 -107.86137 36988 ft 456 kts 88°
2026-04-25 04:03 46.05061 -107.77052 36980 ft 455 kts 88°
2026-04-25 04:03 46.05206 -107.67968 36984 ft 455 kts 88°
2026-04-25 04:04 46.05344 -107.58897 36988 ft 454 kts 88°
2026-04-25 04:04 46.05475 -107.49794 36994 ft 454 kts 88°
2026-04-25 04:05 46.05599 -107.40736 36983 ft 454 kts 88°
2026-04-25 04:05 46.05715 -107.31674 36977 ft 454 kts 89°
2026-04-25 04:06 46.05824 -107.22609 36971 ft 454 kts 89°
2026-04-25 04:06 46.05927 -107.13529 36961 ft 453 kts 89°
2026-04-25 04:07 46.06021 -107.04471 36966 ft 453 kts 89°
2026-04-25 04:07 46.06109 -106.95424 36965 ft 453 kts 89°
2026-04-25 04:08 46.06190 -106.86328 36964 ft 453 kts 89°
2026-04-25 04:08 46.06263 -106.77297 36964 ft 453 kts 89°
2026-04-25 04:09 46.06329 -106.68213 36968 ft 453 kts 89°
2026-04-25 04:09 46.06388 -106.59132 36973 ft 453 kts 89°
2026-04-25 04:10 46.06440 -106.50118 36986 ft 453 kts 89°
2026-04-25 04:10 46.06484 -106.41072 36974 ft 453 kts 89°
2026-04-25 04:11 46.06538 -106.27381 36969 ft 454 kts 90°
2026-04-25 04:12 46.06565 -106.18338 36970 ft 454 kts 90°
2026-04-25 04:12 46.06585 -106.09282 36974 ft 454 kts 90°
2026-04-25 04:13 46.06597 -106.00259 36972 ft 454 kts 90°
2026-04-25 04:13 46.06603 -105.91198 36979 ft 454 kts 90°
2026-04-25 04:14 46.06601 -105.82092 36977 ft 454 kts 90°
2026-04-25 04:14 46.06592 -105.73019 36978 ft 454 kts 90°
2026-04-25 04:15 46.06575 -105.63941 36974 ft 454 kts 90°
2026-04-25 04:15 46.06552 -105.54843 36974 ft 454 kts 90°
2026-04-25 04:16 46.06521 -105.45737 36974 ft 454 kts 90°
2026-04-25 04:16 46.06483 -105.36653 36966 ft 454 kts 90°
2026-04-25 04:17 46.06438 -105.27608 36955 ft 454 kts 91°
2026-04-25 04:17 46.06386 -105.18507 36969 ft 454 kts 91°
2026-04-25 04:18 46.06326 -105.09383 36964 ft 454 kts 91°
2026-04-25 04:18 46.06259 -105.00200 36973 ft 454 kts 91°
2026-04-25 04:19 46.06185 -104.91148 36963 ft 454 kts 91°
2026-04-25 04:19 46.06104 -104.82053 36967 ft 454 kts 91°
2026-04-25 04:20 46.06016 -104.72986 36955 ft 454 kts 91°
2026-04-25 04:20 46.05921 -104.63940 36955 ft 455 kts 91°
2026-04-25 04:21 46.05819 -104.54896 36954 ft 455 kts 91°
2026-04-25 04:21 46.05708 -104.45799 36951 ft 456 kts 91°
2026-04-25 04:22 46.05591 -104.36678 36936 ft 456 kts 91°
2026-04-25 04:22 46.05466 -104.27550 36930 ft 455 kts 92°
2026-04-25 04:23 46.05335 -104.18516 36932 ft 454 kts 91°
2026-04-25 04:23 46.05197 -104.09442 36929 ft 454 kts 91°
2026-04-25 04:24 46.05051 -104.00372 36950 ft 453 kts 92°
2026-04-25 04:24 46.04899 -103.91318 36948 ft 453 kts 91°
2026-04-25 04:25 46.04739 -103.82285 36943 ft 454 kts 92°
2026-04-25 04:25 46.04572 -103.73205 36930 ft 454 kts 92°
2026-04-25 04:26 46.04398 -103.64130 36938 ft 454 kts 92°
2026-04-25 04:26 46.04216 -103.55077 36951 ft 454 kts 92°
2026-04-25 04:27 46.04028 -103.46021 36961 ft 454 kts 92°
2026-04-25 04:27 46.03833 -103.37020 36962 ft 454 kts 92°
2026-04-25 04:28 46.03630 -103.27940 36963 ft 454 kts 92°
2026-04-25 04:28 46.03419 -103.18825 36964 ft 454 kts 92°
2026-04-25 04:29 46.03202 -103.09798 36962 ft 454 kts 92°
2026-04-25 04:29 46.02978 -103.00739 36970 ft 454 kts 92°
2026-04-25 04:30 46.02747 -102.91675 36967 ft 454 kts 92°
2026-04-25 04:30 46.02508 -102.82644 36970 ft 454 kts 92°
2026-04-25 04:31 46.02261 -102.73530 36966 ft 455 kts 92°
2026-04-25 04:31 46.02008 -102.64463 36971 ft 455 kts 92°
2026-04-25 04:32 46.01746 -102.55360 36968 ft 455 kts 92°
2026-04-25 04:32 46.01478 -102.46284 36974 ft 455 kts 92°
2026-04-25 04:33 46.01203 -102.37196 36971 ft 455 kts 92°
2026-04-25 04:33 46.00920 -102.28096 36965 ft 456 kts 94°
2026-04-25 04:34 46.00629 -102.18989 36951 ft 456 kts 94°
2026-04-25 04:34 46.00333 -102.09931 36944 ft 456 kts 93°
2026-04-25 04:35 46.00028 -102.00834 36942 ft 456 kts 94°
2026-04-25 04:35 46.00040 -101.91749 36948 ft 456 kts 89°
2026-04-25 04:36 46.00136 -101.82636 36948 ft 456 kts 90°
2026-04-25 04:36 46.00200 -101.73529 36952 ft 456 kts 90°
2026-04-25 04:37 46.00255 -101.64411 36956 ft 456 kts 90°
2026-04-25 04:37 46.00303 -101.55353 36952 ft 455 kts 90°
2026-04-25 04:38 46.00343 -101.46241 36954 ft 455 kts 90°
2026-04-25 04:38 46.00376 -101.37189 36959 ft 456 kts 90°
2026-04-25 04:39 46.00402 -101.28073 36953 ft 456 kts 91°
2026-04-25 04:39 46.00420 -101.18979 36950 ft 455 kts 91°
2026-04-25 04:40 46.00432 -101.09898 36947 ft 455 kts 91°
2026-04-25 04:40 46.00436 -101.00857 36953 ft 455 kts 91°
2026-04-25 04:41 46.00433 -100.91791 36964 ft 455 kts 91°
2026-04-25 04:41 46.00423 -100.82732 36959 ft 455 kts 91°
2026-04-25 04:42 46.00406 -100.73621 36964 ft 455 kts 91°
2026-04-25 04:42 46.00381 -100.64562 36965 ft 455 kts 91°
2026-04-25 04:43 46.00349 -100.55494 36965 ft 456 kts 91°
2026-04-25 04:43 46.00311 -100.46386 36970 ft 456 kts 91°
2026-04-25 04:44 46.00264 -100.37284 36961 ft 456 kts 91°
2026-04-25 04:44 46.00211 -100.28175 36969 ft 457 kts 92°
2026-04-25 04:45 46.00150 -100.19091 36962 ft 457 kts 91°
2026-04-25 04:45 46.00082 -100.09959 36966 ft 457 kts 91°
2026-04-25 04:46 46.00008 -100.00877 36957 ft 457 kts 91°
2026-04-25 04:46 45.99789 -99.91736 36957 ft 456 kts 94°
2026-04-25 04:47 45.99516 -99.82646 36961 ft 456 kts 94°
2026-04-25 04:47 45.99250 -99.73570 36957 ft 456 kts 93°
2026-04-25 04:48 45.98979 -99.64503 36961 ft 457 kts 94°
2026-04-25 04:48 45.98700 -99.55411 36961 ft 457 kts 94°
2026-04-25 04:49 45.98413 -99.46303 36956 ft 457 kts 94°
2026-04-25 04:49 45.98121 -99.37247 36954 ft 457 kts 94°
2026-04-25 04:50 45.97818 -99.28117 36950 ft 457 kts 95°
2026-04-25 04:50 45.97509 -99.19015 36957 ft 457 kts 94°
2026-04-25 04:51 45.97193 -99.09896 36957 ft 456 kts 94°
2026-04-25 04:51 45.96871 -99.00807 36951 ft 456 kts 94°
2026-04-25 04:52 45.96542 -98.91756 36962 ft 456 kts 94°
2026-04-25 04:52 45.96206 -98.82687 36968 ft 456 kts 95°
2026-04-25 04:53 45.95861 -98.73585 36976 ft 456 kts 95°
2026-04-25 04:53 45.95511 -98.64539 36979 ft 456 kts 95°
2026-04-25 04:54 45.95150 -98.55374 36981 ft 456 kts 95°
2026-04-25 04:54 45.94783 -98.46287 36985 ft 456 kts 95°
2026-04-25 04:55 45.94410 -98.37193 36987 ft 456 kts 95°
2026-04-25 04:55 45.94030 -98.28107 36983 ft 457 kts 95°
2026-04-25 04:56 45.93639 -98.18950 36989 ft 456 kts 95°
2026-04-25 04:56 45.93246 -98.09912 36985 ft 456 kts 95°
2026-04-25 04:57 45.92843 -98.00814 36985 ft 456 kts 95°
2026-04-25 04:57 45.92433 -97.91716 36986 ft 456 kts 95°
2026-04-25 04:58 45.92017 -97.82647 36996 ft 456 kts 96°
2026-04-25 04:58 45.91594 -97.73560 36995 ft 456 kts 96°
2026-04-25 04:59 45.91161 -97.64455 37000 ft 456 kts 96°
2026-04-25 04:59 45.90723 -97.55382 37008 ft 457 kts 96°
2026-04-25 05:00 45.90276 -97.46275 37010 ft 457 kts 96°
2026-04-25 05:00 45.89822 -97.37172 37000 ft 458 kts 96°
2026-04-25 05:01 45.89359 -97.28019 36990 ft 458 kts 96°
2026-04-25 05:01 45.88888 -97.18874 36991 ft 459 kts 96°
2026-04-25 05:02 45.88410 -97.09743 36999 ft 458 kts 96°
2026-04-25 05:02 45.87926 -97.00614 37001 ft 459 kts 96°
2026-04-25 05:03 45.87434 -96.91494 36998 ft 459 kts 97°
2026-04-25 05:03 45.86939 -96.82447 36994 ft 459 kts 96°
2026-04-25 05:04 45.86431 -96.73295 36988 ft 459 kts 96°
2026-04-25 05:04 45.85919 -96.64203 37000 ft 458 kts 96°
2026-04-25 05:05 45.85399 -96.55105 37002 ft 458 kts 96°